Location: Big Meadows
(38.5260°N, 78.4400°W)
Time: 10:46:04
(UTC-04:00)

Amateur Radio Satellites - All Passes

Search period start: 28 August 2015 10:16
Search period end: 29 August 2015 10:16
Location: Big Meadows, 38.5260°N, 78.4400°W

Satellite Date Start Highest point End Downlink Frequencies (MHz)
Time Altitude Azimuth
PHONESAT 2.4 28 Aug 10:16:31 10:19:53 59° 358° (N) 10:23:16 2401.200-2431.200
TIGRISAT 28 Aug 10:16:57 10:20:53 29° 70° (ENE) 10:24:58 435.000
CUTE 1.7 + AOD 2 28 Aug 10:22:34 10:26:34 41° 287° (WNW) 10:30:30 437.475
QB50P2 28 Aug 10:29:56 10:32:04 14° 66° (ENE) 10:34:24 145.880/145.840
ANTELSAT 28 Aug 10:31:46 10:36:09 43° 72° (ENE) 10:40:37 437.575/2403.000
NANOSAT C BR1 28 Aug 10:34:06 10:36:23 15° 67° (ENE) 10:38:51 145.865
GOMX 1 28 Aug 10:34:42 10:38:37 20° 293° (WNW) 10:42:24 467.674
CANX-2 28 Aug 10:36:16 10:39:51 26° 289° (WNW) 10:43:20 2200.000
QB50P1 28 Aug 10:45:09 10:48:12 20° 68° (ENE) 10:51:22 145.935-145.965
BUGSAT 1 28 Aug 10:45:19 10:46:18 11° 65° (ENE) 10:47:30 437.445
SO-50 28 Aug 10:45:38 10:49:53 28° 48° (NE) 10:54:06 436.795
CINEMA 3 28 Aug 10:45:52 10:50:40 45° 287° (WNW) 10:55:21 145.822/145.860
PCSat 28 Aug 10:47:14 10:48:50 11° 39° (NE) 10:50:39 145.827
Oscar 11 28 Aug 10:47:44 10:52:04 81° 102° (ESE) 10:56:22 145.826/435.025
AUBIESAT-1 28 Aug 10:49:14 10:53:58 88° 78° (ENE) 10:58:43 437.475
M-CUBED/EXP-1 PRIME 28 Aug 10:50:27 10:55:13 77° 253° (WSW) 11:00:02 437.505
YUBILEINY 28 Aug 10:51:11 10:58:39 31° 275° (W) 11:05:51 435.215
VERMONT LUNAR 28 Aug 10:52:06 10:54:49 31° 206° (SSW) 10:57:32 437.305
UKube-1 28 Aug 10:55:13 10:55:45 10° 89° (E) 10:56:35 .
DANDE 28 Aug 10:57:11 11:02:06 20° 67° (ENE) 11:07:56 436.750
CUSAT 1 28 Aug 10:58:41 11:04:58 29° 70° (ENE) 11:11:58 437.405
HO-68 28 Aug 11:00:18 11:06:52 39° 294° (WNW) 11:13:20 435.675
ISS 28 Aug 11:02:20 11:05:32 65° 322° (NW) 11:08:46 145.825
CUBEBUG 2 28 Aug 11:03:44 11:08:25 61° 285° (WNW) 11:12:57 437.445
HUMSAT D 28 Aug 11:05:13 11:08:54 29° 95° (E) 11:12:36 437.325/437.525
DELFI C3 28 Aug 11:05:14 11:09:15 85° 104° (ESE) 11:13:13 145.870
SEEDS 28 Aug 11:05:45 11:08:38 18° 292° (WNW) 11:11:23 437.485
DOVE 4 28 Aug 11:09:07 11:12:09 15° 295° (WNW) 11:14:55 437.250
VELOX 1 28 Aug 11:10:18 11:11:28 11° 89° (E) 11:12:55 145.980
Cosmos 2504 28 Aug 11:11:43 11:20:05 56° 77° (ENE) 11:28:02 435.465 / 435.565
UWE-3 28 Aug 11:19:26 11:23:57 53° 286° (WNW) 11:28:21 435.000/436.395/437.385
ZACube-1 28 Aug 11:21:46 11:26:17 66° 285° (WNW) 11:30:41 437.345
UNISAT 6 28 Aug 11:22:35 11:27:08 54° 261° (W) 11:31:46 437.425
FUNcube-1 28 Aug 11:29:08 11:33:35 56° 286° (WNW) 11:37:54 145.935
Cosmos 2491 28 Aug 11:35:35 11:43:09 31° 291° (WNW) 11:50:30 435.465 / 435.565
COMPASS 1 28 Aug 11:36:05 11:37:17 11° 294° (WNW) 11:38:14 437.405
POLYITAN 1 28 Aug 11:43:06 11:47:22 86° 257° (WSW) 11:51:41 437.675
ESTCUBE 1 28 Aug 11:47:01 11:50:30 22° 94° (E) 11:54:05 437.505/2401.250
POPSAT HIP 1 28 Aug 11:47:24 11:51:37 79° 258° (WSW) 11:55:54 437.405
DUCHIFAT 1 28 Aug 11:51:36 11:55:48 73° 258° (WSW) 12:00:03 145.980
TIGRISAT 28 Aug 11:53:39 11:57:36 27° 266° (W) 12:01:31 435.000
PHONESAT 2.4 28 Aug 11:54:29 11:57:54 89° 203° (SSW) 12:01:20 2401.200-2431.200
QB50P2 28 Aug 12:03:28 12:07:34 48° 261° (W) 12:11:44 145.880/145.840
NANOSAT C BR1 28 Aug 12:07:48 12:11:51 45° 261° (W) 12:15:57 145.865
DX 1 28 Aug 12:08:57 12:13:21 88° 101° (ESE) 12:17:44 434.975-435.025
ANTELSAT 28 Aug 12:09:55 12:13:10 18° 269° (W) 12:16:15 437.575/2403.000
50 SAT 28 Aug 12:12:43 12:16:36 78° 102° (ESE) 12:20:26 437.505
AISAT 28 Aug 12:14:35 12:19:03 65° 101° (E) 12:23:30 437.250
BUGSAT 1 28 Aug 12:17:19 12:21:18 58° 260° (W) 12:25:20 437.445
QB50P1 28 Aug 12:20:03 12:23:52 32° 263° (W) 12:27:41 145.935-145.965
SO-50 28 Aug 12:26:00 12:30:30 36° 246° (WSW) 12:34:51 436.795
CUBEBUG 1 28 Aug 12:27:49 12:32:08 52° 100° (E) 12:36:27 437.445
PCSat 28 Aug 12:27:59 12:33:23 67° 60° (ENE) 12:38:47 145.827
UKube-1 28 Aug 12:28:04 12:32:22 62° 286° (WNW) 12:36:39 .
DANDE 28 Aug 12:38:34 12:45:52 85° 262° (W) 12:54:22 436.750
SPROUT 28 Aug 12:39:48 12:43:04 21° 93° (E) 12:46:24 437.525
CUSAT 1 28 Aug 12:40:25 12:47:53 61° 265° (W) 12:55:57 437.405
ISS 28 Aug 12:40:42 12:42:28 14° 341° (NNW) 12:44:11 145.825
HUMSAT D 28 Aug 12:41:10 12:44:30 22° 291° (WNW) 12:47:40 437.325/437.525
VELOX 1 28 Aug 12:44:04 12:48:29 61° 286° (WNW) 12:52:53 145.980
Oscar 19 28 Aug 12:46:46 12:50:22 20° 66° (ENE) 12:54:09 437.125/150
Cosmos 2504 28 Aug 13:04:45 13:11:50 29° 276° (W) 13:18:24 435.465 / 435.565
ESTCUBE 1 28 Aug 13:23:26 13:27:25 31° 289° (WNW) 13:31:20 437.505/2401.250
PHONESAT 2.4 28 Aug 13:32:45 13:35:34 23° 210° (SSW) 13:38:21 2401.200-2431.200
ITAMSAT 1 28 Aug 13:37:42 13:40:35 16° 64° (ENE) 13:43:40 435.822/435.867
GONETS M04 28 Aug 13:40:51 13:47:40 26° 67° (ENE) 13:54:49
AISAT 28 Aug 13:53:19 13:55:08 12° 295° (WNW) 13:56:43 437.250
TISAT 1 28 Aug 13:58:50 14:03:08 85° 284° (WNW) 14:07:24 437.305
ITUPSAT 1 28 Aug 13:59:49 14:02:17 14° 90° (E) 14:05:00 437.325
CUBEBUG 1 28 Aug 14:05:43 14:08:06 14° 294° (WNW) 14:10:16 437.445
JAS-2 28 Aug 14:12:34 14:18:38 28° 63° (ENE) 14:25:05 435.910
PCSat 28 Aug 14:13:10 14:16:18 15° 255° (WSW) 14:19:10 145.827
SPROUT 28 Aug 14:15:20 14:19:11 31° 289° (WNW) 14:22:59 437.525
DANDE 28 Aug 14:24:03 14:28:33 16° 273° (W) 14:32:48 436.750
Oscar 19 28 Aug 14:24:26 14:29:24 48° 261° (W) 14:34:24 437.125/150
CUSAT 1 28 Aug 14:28:48 14:29:34 10° 278° (W) 14:29:35 437.405
Gurwin Techsat 1B 28 Aug 14:33:43 14:38:57 63° 74° (ENE) 14:44:13 435.225
BEESAT 28 Aug 14:34:11 14:38:30 34° 97° (E) 14:42:51 436.000
AO-7 28 Aug 14:34:29 14:40:13 22° 56° (NE) 14:46:17 29.400- 29.500
SWISSCUBE 28 Aug 14:59:14 15:04:00 71° 101° (ESE) 15:08:44 437.505
KKS-1 28 Aug 15:12:38 15:14:40 13° 90° (E) 15:16:55 437.445
ITAMSAT 1 28 Aug 15:14:29 15:19:37 64° 259° (WSW) 15:24:46 435.822/435.867
Cosmos 2499 28 Aug 15:17:13 15:24:14 27° 67° (ENE) 15:31:09 435.465 / 435.565
HORYU 2 28 Aug 15:20:02 15:22:53 17° 67° (ENE) 15:25:54 437.375
ITUPSAT 1 28 Aug 15:35:55 15:40:34 53° 287° (WNW) 15:45:11 437.325
BEESAT 3 28 Aug 15:36:33 15:39:40 22° 113° (ESE) 15:42:53 437.485
GONETS M04 28 Aug 15:36:37 15:45:20 67° 267° (W) 15:54:01
BEESAT 2 28 Aug 15:43:03 15:45:57 19° 112° (ESE) 15:48:59 435.950
RS-15 28 Aug 15:49:16 15:57:23 26° 104° (ESE) 16:06:10 29.354- 29.394
ISS 28 Aug 15:55:30 15:57:32 15° 21° (NNE) 15:59:36 145.825
JAS-2 28 Aug 15:55:41 16:03:06 64° 260° (W) 16:10:56 435.910
JUGNU 28 Aug 16:10:45 16:12:25 11° 176° (S) 16:14:06 437.505
BEESAT 28 Aug 16:12:24 16:16:11 23° 292° (WNW) 16:19:50 436.000
Gurwin Techsat 1B 28 Aug 16:16:26 16:19:28 15° 271° (W) 16:22:13 435.225
AO-7 28 Aug 16:23:47 16:32:11 85° 254° (WSW) 16:40:34 29.400- 29.500
MOZHAYETS 4 28 Aug 16:33:31 16:35:50 14° 90° (E) 16:38:23
STARS 28 Aug 16:38:13 16:42:41 71° 102° (ESE) 16:47:06 437.465
SWISSCUBE 28 Aug 16:39:21 16:41:19 12° 297° (WNW) 16:43:03 437.505
KKS-1 28 Aug 16:47:17 16:51:41 53° 286° (WNW) 16:56:02 437.445
HORYU 2 28 Aug 16:54:55 16:59:12 43° 261° (W) 17:03:31 437.375
Cosmos 2499 28 Aug 17:09:32 17:18:08 63° 268° (W) 17:26:07 435.465 / 435.565
BEESAT 3 28 Aug 17:13:48 17:17:26 31° 308° (NW) 17:21:05 437.485
CUTE-I 28 Aug 17:13:58 17:15:51 12° 62° (ENE) 17:18:02 437.470
BEESAT 2 28 Aug 17:20:00 17:23:46 35° 307° (NW) 17:27:34 435.950
AIST 2 28 Aug 17:29:49 17:33:57 57° 118° (ESE) 17:38:09 435.215
ISS 28 Aug 17:31:05 17:34:20 88° 37° (NE) 17:37:35 145.825
GONETS M04 28 Aug 17:39:42 17:40:44 10° 284° (WNW) 17:40:55
RS-15 28 Aug 17:57:47 18:08:44 77° 304° (NW) 18:20:07 29.354- 29.394
JUGNU 28 Aug 17:59:25 18:00:32 10° 186° (S) 18:01:36 437.505
Cubesat XI-IV 28 Aug 18:04:25 18:09:13 36° 70° (ENE) 18:14:06 437.490
MOZHAYETS 4 28 Aug 18:09:00 18:13:25 50° 286° (WNW) 18:17:48
CUBESAT XI-V 28 Aug 18:16:31 18:19:11 16° 90° (E) 18:22:03 437.345
STARS 28 Aug 18:17:21 18:18:35 11° 296° (WNW) 18:19:34 437.465
AO-7 28 Aug 18:21:36 18:26:17 15° 272° (W) 18:30:23 29.400- 29.500
CUTE-I 28 Aug 18:49:58 18:55:18 85° 256° (WSW) 19:00:39 437.470
SRMSAT 28 Aug 19:01:17 19:03:19 12° 182° (S) 19:05:22 437.500
AIST 2 28 Aug 19:10:14 19:12:55 16° 316° (NW) 19:15:29 435.215
BRITE-PL 28 Aug 19:16:03 19:19:24 23° 68° (ENE) 19:23:02 437.365/2234.400
HO-68 28 Aug 19:40:29 19:46:04 26° 62° (ENE) 19:51:51 435.675
Cubesat XI-IV 28 Aug 19:44:56 19:49:25 26° 266° (W) 19:53:47 437.490
Cosmos 2491 28 Aug 19:50:09 19:56:50 25° 66° (ENE) 20:03:52 435.465 / 435.565
STRAND 1 28 Aug 19:51:06 19:55:52 39° 98° (E) 20:00:39 437.568
CUBESAT XI-V 28 Aug 19:52:28 19:56:56 47° 286° (WNW) 20:01:22 437.345
CANX-2 28 Aug 19:53:02 19:55:29 15° 67° (ENE) 19:58:07 2200.000
GOMX 1 28 Aug 20:02:47 20:06:55 43° 72° (ENE) 20:11:23 467.674
O/OREOS (USA 219) 28 Aug 20:03:02 20:07:29 61° 108° (ESE) 20:12:00 437.305
CINEMA 3 28 Aug 20:10:59 20:13:27 15° 65° (ENE) 20:16:11 145.822/145.860
AIST 1 28 Aug 20:11:41 20:15:59 68° 81° (E) 20:20:18
RS-15 28 Aug 20:14:35 20:23:32 26° 332° (NNW) 20:32:33 29.354- 29.394
PRISM 28 Aug 20:17:33 20:21:34 52° 100° (E) 20:25:35 437.425
SEEDS 28 Aug 20:20:17 20:23:30 22° 70° (ENE) 20:26:48 437.485
DOVE 4 28 Aug 20:33:51 20:38:14 56° 74° (ENE) 20:42:56 437.250
UWE-3 28 Aug 20:42:21 20:43:02 10° 63° (ENE) 20:44:01 435.000/436.395/437.385
COMPASS 1 28 Aug 20:47:40 20:51:27 34° 72° (ENE) 20:55:17 437.405
BRITE-PL 28 Aug 20:54:11 20:57:52 27° 266° (W) 21:01:41 437.365/2234.400
AAUSAT CUBESAT 2 28 Aug 21:00:58 21:04:53 40° 73° (ENE) 21:08:51 437.432
CUTE 1.7 + AOD 2 28 Aug 21:13:18 21:17:36 72° 258° (WSW) 21:21:54 437.475
HO-68 28 Aug 21:26:19 21:33:22 59° 258° (WSW) 21:40:28 435.675
CANX-2 28 Aug 21:26:58 21:31:05 44° 262° (W) 21:35:12 2200.000
STRAND 1 28 Aug 21:30:50 21:34:52 23° 293° (WNW) 21:38:46 437.568
Oscar 11 28 Aug 21:40:50 21:45:02 51° 74° (ENE) 21:49:17 145.826/435.025
GOMX 1 28 Aug 21:42:41 21:45:26 16° 271° (W) 21:48:06 467.674
O/OREOS (USA 219) 28 Aug 21:44:58 21:47:25 14° 307° (NW) 21:49:41 437.305
CINEMA 3 28 Aug 21:45:38 21:50:08 57° 261° (W) 21:54:53 145.822/145.860
Cosmos 2491 28 Aug 21:45:53 21:54:33 68° 267° (W) 22:03:12 435.465 / 435.565
DELFI C3 28 Aug 21:50:40 21:54:28 40° 73° (ENE) 21:58:18 145.870
YUBILEINY 28 Aug 21:52:11 22:00:47 66° 93° (E) 22:09:31 435.215
PRISM 28 Aug 21:54:51 21:56:35 12° 294° (WNW) 21:58:09 437.425
SEEDS 28 Aug 21:55:22 21:59:08 29° 264° (W) 22:02:51 437.485
HUMSAT D 28 Aug 21:56:02 21:58:58 19° 68° (ENE) 22:02:03 437.325/437.525
CUBEBUG 2 28 Aug 21:59:51 22:04:26 88° 266° (W) 22:09:10 437.445
UWE-3 28 Aug 22:14:23 22:18:56 79° 257° (WSW) 22:23:37 435.000/436.395/437.385
DOVE 4 28 Aug 22:14:26 22:16:33 13° 273° (W) 22:18:27 437.250
ZACube-1 28 Aug 22:15:37 22:20:07 81° 77° (ENE) 22:24:44 437.345
FUNcube-1 28 Aug 22:22:42 22:27:11 87° 258° (WSW) 22:31:47 145.935
COMPASS 1 28 Aug 22:24:14 22:27:14 18° 268° (W) 22:30:06 437.405
RS-15 28 Aug 22:34:37 22:41:40 18° 7° (N) 22:49:02 29.354- 29.394
AAUSAT CUBESAT 2 28 Aug 22:38:10 22:40:42 15° 269° (W) 22:43:05 437.432
ESTCUBE 1 28 Aug 22:45:53 22:48:54 19° 68° (ENE) 22:52:04 437.505/2401.250
50 SAT 28 Aug 22:54:39 22:58:12 33° 72° (ENE) 23:01:49 437.505
DX 1 28 Aug 23:02:56 23:07:11 62° 74° (ENE) 23:11:30 434.975-435.025
AISAT 28 Aug 23:10:49 23:15:02 47° 73° (ENE) 23:19:18 437.250
UNISAT 6 28 Aug 23:16:17 23:20:29 35° 96° (E) 23:24:37 437.425
Oscar 11 28 Aug 23:19:29 23:21:35 13° 270° (W) 23:23:27 145.826/435.025
UKube-1 28 Aug 23:21:05 23:25:23 90° 253° (WSW) 23:29:44 .
CUBEBUG 1 28 Aug 23:22:40 23:26:34 36° 72° (ENE) 23:30:33 437.445
DELFI C3 28 Aug 23:27:31 23:29:45 14° 269° (W) 23:31:49 145.870
HUMSAT D 28 Aug 23:30:27 23:34:27 36° 263° (W) 23:38:27 437.325/437.525
POLYITAN 1 28 Aug 23:30:57 23:33:47 17° 92° (E) 23:36:45 437.675
SPROUT 28 Aug 23:33:39 23:35:52 14° 67° (ENE) 23:38:17 437.525
POPSAT HIP 1 28 Aug 23:34:50 23:37:50 19° 92° (E) 23:40:57 437.405
DUCHIFAT 1 28 Aug 23:38:26 23:41:31 20° 93° (E) 23:44:43 145.980
Cosmos 2504 28 Aug 23:39:37 23:46:56 43° 88° (E) 23:54:48 435.465 / 435.565
VELOX 1 28 Aug 23:39:54 23:44:18 83° 260° (W) 23:48:43 145.980
TIGRISAT 28 Aug 23:46:02 23:50:40 74° 101° (ESE) 23:55:08 435.000
Cosmos 2491 28 Aug 23:48:27 23:50:00 10° 283° (WNW) 23:50:44 435.465 / 435.565
QB50P2 28 Aug 23:50:18 23:54:03 29° 96° (E) 23:57:50 145.880/145.840
YUBILEINY 28 Aug 23:51:17 23:58:25 26° 293° (WNW) 00:05:19 435.215
NANOSAT C BR1 28 Aug 23:54:06 23:57:53 30° 96° (E) 00:01:42 145.865
BEESAT 3 28 Aug 23:57:14 23:58:25 11° 41° (NE) 23:59:46 437.485
BUGSAT 1 29 Aug 00:01:16 00:04:35 22° 94° (E) 00:07:58 437.445
ANTELSAT 29 Aug 00:01:40 00:06:16 72° 284° (WNW) 00:10:44 437.575/2403.000
BEESAT 2 29 Aug 00:04:41 00:05:11 10° 40° (NE) 00:05:53 435.950
QB50P1 29 Aug 00:06:02 00:10:09 43° 98° (E) 00:14:14 145.935-145.965
AUBIESAT-1 29 Aug 00:06:26 00:10:29 88° 105° (ESE) 00:14:10 437.475
CUSAT 1 29 Aug 00:07:00 00:08:47 13° 83° (E) 00:10:58 437.405
M-CUBED/EXP-1 PRIME 29 Aug 00:08:19 00:12:25 73° 290° (WNW) 00:16:09 437.505
ESTCUBE 1 29 Aug 00:21:17 00:25:30 39° 262° (W) 00:29:43 437.505/2401.250
50 SAT 29 Aug 00:30:16 00:32:51 16° 268° (W) 00:35:19 437.505
DX 1 29 Aug 00:43:10 00:43:56 10° 271° (W) 00:44:24 434.975-435.025
RS-15 29 Aug 00:48:33 00:59:02 37° 39° (NE) 01:10:05 29.354- 29.394
TISAT 1 29 Aug 00:49:15 00:53:21 57° 75° (ENE) 00:57:31 437.305
AISAT 29 Aug 00:49:29 00:51:56 14° 270° (W) 00:54:10 437.250
UNISAT 6 29 Aug 00:53:33 00:57:03 21° 292° (WNW) 01:00:22 437.425
CUBEBUG 1 29 Aug 01:00:04 01:03:05 18° 268° (W) 01:05:58 437.445
SO-50 29 Aug 01:01:48 01:02:55 11° 108° (ESE) 01:04:22 436.795
ITUPSAT 1 29 Aug 01:05:38 01:08:21 16° 65° (ENE) 01:11:15 437.325
POLYITAN 1 29 Aug 01:05:51 01:09:51 37° 288° (WNW) 01:13:47 437.675
SPROUT 29 Aug 01:07:27 01:11:35 47° 261° (W) 01:15:45 437.525
POPSAT HIP 1 29 Aug 01:09:54 01:13:49 34° 288° (WNW) 01:17:41 437.405
DUCHIFAT 1 29 Aug 01:13:33 01:17:24 32° 289° (WNW) 01:21:11 145.980
TIGRISAT 29 Aug 01:25:27 01:26:49 11° 297° (WNW) 01:27:54 435.000
QB50P2 29 Aug 01:26:25 01:29:49 22° 291° (WNW) 01:33:05 145.880/145.840
NANOSAT C BR1 29 Aug 01:30:15 01:33:33 21° 291° (WNW) 01:36:44 145.865
Cosmos 2504 29 Aug 01:31:50 01:39:14 38° 288° (WNW) 01:46:57 435.465 / 435.565
BEESAT 3 29 Aug 01:32:55 01:36:57 81° 240° (WSW) 01:40:54 437.485
BUGSAT 1 29 Aug 01:36:21 01:40:02 28° 289° (WNW) 01:43:40 437.445
BEESAT 29 Aug 01:39:18 01:43:34 34° 71° (ENE) 01:47:54 436.000
BEESAT 2 29 Aug 01:39:51 01:43:56 88° 70° (ENE) 01:47:55 435.950
QB50P1 29 Aug 01:43:01 01:45:40 16° 293° (WNW) 01:48:10 145.935-145.965
CUSAT 1 29 Aug 01:47:30 01:50:44 31° 290° (WNW) 01:54:50 437.405
DANDE 29 Aug 01:50:53 01:53:54 46° 285° (WNW) 01:57:47 436.750
AIST 2 29 Aug 01:53:11 01:56:40 25° 49° (NE) 02:00:09 435.215
SWISSCUBE 29 Aug 02:04:12 02:08:57 69° 75° (ENE) 02:13:42 437.505
KKS-1 29 Aug 02:10:52 02:11:58 11° 64° (ENE) 02:13:19 437.445
TISAT 1 29 Aug 02:28:36 02:29:34 10° 271° (W) 02:30:16 437.305
Oscar 19 29 Aug 02:37:10 02:42:22 68° 102° (ESE) 02:47:32 437.125/150
SO-50 29 Aug 02:38:05 02:42:51 79° 302° (WNW) 02:47:47 436.795
GONETS M04 29 Aug 02:40:40 02:47:41 30° 85° (E) 02:54:59
ITUPSAT 1 29 Aug 02:41:09 02:45:49 54° 259° (W) 02:50:32 437.325
Gurwin Techsat 1B 29 Aug 02:51:51 02:56:20 28° 95° (E) 03:00:55 435.225
RS-15 29 Aug 03:00:50 03:12:43 75° 243° (WSW) 03:24:54 29.354- 29.394
PCSat 29 Aug 03:07:54 03:13:18 84° 119° (ESE) 03:18:46 145.827
JAS-2 29 Aug 03:09:15 03:14:28 23° 88° (E) 03:19:28 435.910
BEESAT 29 Aug 03:17:41 03:21:30 23° 266° (W) 03:25:12 436.000
ITAMSAT 1 29 Aug 03:28:44 03:33:47 51° 100° (E) 03:38:50 435.822/435.867
AIST 2 29 Aug 03:31:36 03:35:13 29° 246° (WSW) 03:38:44 435.215
STARS 29 Aug 03:33:29 03:37:45 51° 74° (ENE) 03:42:04 437.465
MOZHAYETS 4 29 Aug 03:35:02 03:36:54 13° 65° (ENE) 03:39:00
KKS-1 29 Aug 03:43:38 03:48:04 70° 259° (WSW) 03:52:33 437.445
SWISSCUBE 29 Aug 03:45:52 03:47:22 11° 272° (W) 03:48:33 437.505
Cosmos 2499 29 Aug 03:52:43 03:58:27 22° 81° (E) 04:04:47 435.465 / 435.565
Oscar 19 29 Aug 04:18:17 04:21:12 15° 297° (WNW) 04:23:52 437.125/150
SO-50 29 Aug 04:22:01 04:24:18 13° 322° (NW) 04:26:25 436.795
AO-7 29 Aug 04:27:32 04:34:55 36° 97° (E) 04:42:25 29.400- 29.500
Gurwin Techsat 1B 29 Aug 04:31:35 04:36:22 34° 291° (WNW) 04:41:03 435.225
GONETS M04 29 Aug 04:35:39 04:44:08 55° 283° (WNW) 04:52:37
HORYU 2 29 Aug 04:47:27 04:51:37 38° 98° (E) 04:55:46 437.375
JAS-2 29 Aug 04:53:08 05:00:11 58° 288° (WNW) 05:06:21 435.910
PCSat 29 Aug 04:54:11 04:57:30 16° 316° (NW) 05:00:39 145.827
VERMONT LUNAR 29 Aug 04:56:54 04:59:27 26° 152° (SSE) 05:02:01 437.305
MOZHAYETS 4 29 Aug 05:09:03 05:13:39 64° 259° (W) 05:18:15
ITAMSAT 1 29 Aug 05:09:18 05:12:56 19° 295° (WNW) 05:16:24 435.822/435.867
STARS 29 Aug 05:12:22 05:14:34 13° 270° (W) 05:16:32 437.465
RS-15 29 Aug 05:16:48 05:23:41 16° 260° (W) 05:29:34 29.354- 29.394
CUBESAT XI-V 29 Aug 05:19:29 05:21:39 14° 66° (ENE) 05:24:03 437.345
Cosmos 2499 29 Aug 05:42:25 05:50:44 75° 279° (W) 05:59:36 435.465 / 435.565
O/OREOS (USA 219) 29 Aug 06:14:22 06:19:00 89° 264° (W) 06:23:36 437.305
PHONESAT 2.4 29 Aug 06:17:24 06:18:52 12° 145° (SE) 06:20:24 2401.200-2431.200
AO-7 29 Aug 06:20:02 06:27:56 49° 295° (WNW) 06:35:43 29.400- 29.500
Cubesat XI-IV 29 Aug 06:24:11 06:27:13 16° 90° (E) 06:30:31 437.490
HORYU 2 29 Aug 06:24:49 06:27:59 19° 293° (WNW) 06:31:01 437.375
VERMONT LUNAR 29 Aug 06:32:45 06:35:44 79° 348° (NNW) 06:38:44 437.305
CUBESAT XI-V 29 Aug 06:54:08 06:58:40 58° 260° (W) 07:03:12 437.345
STRAND 1 29 Aug 07:05:30 07:10:24 49° 72° (ENE) 07:15:20 437.568
PRISM 29 Aug 07:06:16 07:09:53 31° 71° (ENE) 07:13:33 437.425
CUTE-I 29 Aug 07:08:40 07:13:42 43° 98° (E) 07:18:46 437.470
BRITE-PL 29 Aug 07:23:05 07:24:37 11° 87° (E) 07:26:34 437.365/2234.400
Cosmos 2499 29 Aug 07:41:20 07:45:51 14° 302° (WNW) 07:49:52 435.465 / 435.565
PHONESAT 2.4 29 Aug 07:52:59 07:56:19 56° 158° (SSE) 07:59:40 2401.200-2431.200
Cubesat XI-IV 29 Aug 08:02:33 08:07:48 59° 287° (WNW) 08:13:01 437.490
YUBILEINY 29 Aug 08:04:44 08:12:08 30° 69° (ENE) 08:19:43 435.215
GOMX 1 29 Aug 08:06:15 08:09:53 19° 90° (E) 08:13:45 467.674
VERMONT LUNAR 29 Aug 08:09:23 08:12:20 57° 4° (N) 08:15:17 437.305
DOVE 4 29 Aug 08:34:46 08:38:38 21° 91° (E) 08:42:39 437.250
AIST 1 29 Aug 08:39:40 08:43:39 42° 93° (E) 08:47:41
PRISM 29 Aug 08:42:26 08:45:24 18° 266° (W) 08:48:14 437.425
STRAND 1 29 Aug 08:46:27 08:49:57 18° 269° (W) 08:53:14 437.568
CUTE-I 29 Aug 08:49:23 08:53:33 23° 294° (WNW) 08:57:35 437.470
Cosmos 2491 29 Aug 08:50:05 08:57:05 29° 85° (E) 09:04:20 435.465 / 435.565
HO-68 29 Aug 08:56:01 09:02:04 29° 94° (E) 09:08:15 435.675
BRITE-PL 29 Aug 08:58:18 09:03:48 87° 284° (WNW) 09:09:30 437.365/2234.400
CUTE 1.7 + AOD 2 29 Aug 09:00:42 09:03:51 21° 93° (E) 09:07:07 437.475
CANX-2 29 Aug 09:13:43 09:17:32 33° 96° (E) 09:21:22 2200.000
AUBIESAT-1 29 Aug 09:20:52 09:21:46 11° 58° (ENE) 09:22:55 437.475
M-CUBED/EXP-1 PRIME 29 Aug 09:21:50 09:23:59 13° 60° (ENE) 09:26:21 437.505
Cosmos 2504 29 Aug 09:30:37 09:33:29 12° 57° (ENE) 09:36:58 435.465 / 435.565
PHONESAT 2.4 29 Aug 09:30:51 09:34:13 62° 355° (N) 09:37:37 2401.200-2431.200
SO-50 29 Aug 09:33:10 09:34:22 11° 36° (NE) 09:35:45 436.795
SEEDS 29 Aug 09:40:30 09:44:33 48° 99° (E) 09:48:36 437.485
CINEMA 3 29 Aug 09:41:58 09:46:42 41° 97° (E) 09:51:20 145.822/145.860
GOMX 1 29 Aug 09:43:01 09:48:19 55° 286° (WNW) 09:53:41 467.674
VERMONT LUNAR 29 Aug 09:45:52 09:48:49 58° 200° (SSW) 09:51:46 437.305
CUBEBUG 2 29 Aug 09:53:15 09:56:55 23° 93° (E) 10:00:35 437.445
UWE-3 29 Aug 10:06:31 10:10:12 24° 93° (E) 10:13:54 435.000/436.395/437.385
ZACube-1 29 Aug 10:06:56 10:09:55 18° 91° (E) 10:13:00 437.345
COMPASS 1 29 Aug 10:07:24 10:11:35 79° 102° (ESE) 10:15:42 437.405
ISS 29 Aug 10:08:49 10:12:00 58° 138° (SE) 10:15:12 145.825
